Regional Weather Roundup
Issued by NWS Little Rock, AR

Home | Current Version | Previous Version | Text Only | Print | Product List | Glossary On
Versions: 1 2 3 4 5 6 7 8 9 10 11 12 13 14 15 16 17 18 19 20 21 22 23 24 25 26 27 28 29 30 31 32 33 34 35 36 37 38 39 40 41 42 43 44 45 46 47 48 49 50
000
ASUS44 KLZK 052105
RWRLZK

WEATHER ROUNDUP FOR ARKANSAS
NATIONAL WEATHER SERVICE LITTLE ROCK AR
400 PM CDT THU MAY 05 2016

NOTE: "FAIR" INDICATES FEW OR NO CLOUDS BELOW 12,000 FEET WITH NO
SIGNIFICANT WEATHER AND/OR OBSTRUCTIONS TO VISIBILITY.

ARZ001-003-010-029-052200-
NORTHWEST ARKANSAS

CITY           SKY/WX    TMP DP  RH WIND       PRES   REMARKS
FAYETTEVILLE   SUNNY     72  45  37 N10       30.03F
FORT SMITH     SUNNY     78  39  24 N16G22    30.00F
HARRISON       SUNNY     72  37  28 NW13G23   30.01F
BENTONVILLE    SUNNY     72  39  30 N14       30.04F
ROGERS         SUNNY     71  42  35 NW12G17   30.04F
SILOAM SPGS    SUNNY     72  46  40 NW9       30.05F
HIGHFILL       SUNNY     76  43  30 N18       30.03F
SPRINGDALE     SUNNY     73  41  31 NW10G17   30.05F
$$

ARZ004-005-016-052200-
NORTH CENTRAL ARKANSAS

CITY           SKY/WX    TMP DP  RH WIND       PRES   REMARKS
BATESVILLE     SUNNY     73  36  25 NW7G16    29.97F
FLIPPIN        SUNNY    N/A N/A N/A N14       29.97F
MTN HOME       SUNNY     71  33  24 VRB6G20   29.99F
$$

ARZ040-041-052200-
WEST CENTRAL ARKANSAS

CITY           SKY/WX    TMP DP  RH WIND       PRES   REMARKS
MENA           SUNNY     77  45  31 NW9       30.02F
MOUNT IDA      SUNNY     76  43  30 MISG      29.97F
$$

ARZ009-017-025-026-028-052200-
NORTHEAST ARKANSAS

CITY           SKY/WX    TMP DP  RH WIND       PRES   REMARKS
CORNING          N/A     73  36  25 N17G23    29.96F
JONESBORO      SUNNY     73  34  23 N14G20    29.95F
NEWPORT        SUNNY     74  34  23 NW10      29.97F
WALNUT RIDGE   SUNNY     73  34  23 N12       29.95F
BLYTHEVILLE    MOSUNNY   71  42  35 N20G26    29.96F
NW BLYTHEVILLE MOSUNNY   70  39  32 N12G24    29.95
$$

ARZ022-023-033-042-044-052200-
CENTRAL ARKANSAS

CITY           SKY/WX    TMP DP  RH WIND       PRES   REMARKS
LITTLE ROCK    MOSUNNY   79  37  22 NW22G29   29.96F
N LITTLE ROCK    N/A     75  40  27 N8G16     29.95F
JACKSONVILLE   SUNNY     77  41  28 NW8G22    29.95F
SEARCY         SUNNY     75  42  30 N10       29.97F
HOT SPRINGS    SUNNY     76  41  28 NW7       29.98F
RUSSELLVILLE   SUNNY     78  40  25 NW14G20   29.96F
CLINTON        FAIR      75  41  29 NW8       29.97F
$$

ARZ036-052200-
EAST ARKANSAS

CITY           SKY/WX    TMP DP  RH WIND       PRES   REMARKS
WEST MEMPHIS   SUNNY     71  40  32 N12G17    29.94F
$$

ARZ050-053-066-070-073-052200-
SOUTHWEST ARKANSAS

CITY           SKY/WX    TMP DP  RH WIND       PRES   REMARKS
ARKADELPHIA    FAIR      77  48  35 N9        29.98F
CAMDEN         SUNNY     77  39  25 NW12      29.97F
TEXARKANA      SUNNY     77  43  29 N9G16     29.99F
EL DORADO      SUNNY     76  43  30 NW13      29.97F
DE QUEEN       MOSUNNY   78  45  30 N8G16     29.98F
$$

ARZ056-057-069-052200-
SOUTHEAST ARKANSAS

CITY           SKY/WX    TMP DP  RH WIND       PRES   REMARKS
PINE BLUFF     SUNNY     75  44  33 NW14      29.96F
STUTTGART      SUNNY     73  43  33 N15G21    29.96F
MONTICELLO     SUNNY     77  38  24 NW7G16    29.96F

$$





USA.gov is the U.S. government's official web portal to all federal, state and local government web resources and services.